User: anonymous   Login
Location: Unspecified
(0.0000°N, 0.0000°E)
Time: 03:05:57
(UTC+00:00)
Language:

UWE-3 - Orbit

View from above orbital plane
View from above orbital plane
View from above satellite
View from above satellite

Ground track
Ground track

The orbit data is extracted from the following two-line orbital elements,

1 39446U 13066AG  20185.51702739 +.00000119 +00000-0 +22589-4 0  9993
2 39446 097.5985 174.3107 0068322 257.1733 102.1839 14.78556326354949
Epoch (UTC): 03 July 2020 12:24:31
Eccentricity: 0.0068322
inclination: 97.5985°
perigee height: 586 km
apogee height: 682 km
right ascension of ascending node: 174.3107°
argument of perigee: 257.1733°
revolutions per day: 14.78556326
mean anomaly at epoch: 102.1839°
orbit number at epoch: 35494

The dashed part of the orbit path shows where the satellite is in the earth's shadow,  

DLR